FW8351 Weather Reports


time (UTC)temp
C
wind
direction
speed
KPH
gust
KPH
rain 1hr
cm
rain 24hr
cm
rain mn
cm
humidity
%
barometer
mb
20260505003135 5 141 0.0 0.0 0.00 0.03 0.00 95 1009.9
20260505001630 5 141 0.0 0.0 0.00 0.03 0.00 94 1009.9
20260505000031 5 141 0.0 0.0 0.00 0.03 0.00 94 1009.9
20260504234507 5 141 0.0 0.0 0.00 0.03 0.00 94 1010.0
20260504233008 5 141 0.0 0.0 0.00 0.03 0.00 93 1009.9
20260504231605 5 141 0.0 0.0 0.00 0.03 0.00 94 1009.8
20260504230039 5 141 0.0 0.0 0.00 0.03 0.00 93 1009.6
20260504224527 5 164 0.0 0.0 0.00 0.03 0.00 93 1009.6
20260504223018 5 335 0.0 0.0 0.00 0.03 0.00 93 1009.4
20260504221558 6 7 0.0 0.0 0.00 0.03 0.00 93 1009.4
20260504220040 6 5 0.0 0.0 0.00 0.03 0.00 93 1009.3
20260504214509 6 34 0.0 0.0 0.00 0.03 0.03 94 1009.5
20260504213038 6 84 0.0 0.0 0.00 0.03 0.03 94 1009.8
20260504211519 6 141 0.0 0.0 0.00 0.03 0.03 94 1010.3
20260504210015 6 174 0.0 3.2 0.00 0.03 0.03 93 1010.4
20260504204536 6 181 0.0 12.9 0.00 0.03 0.03 93 1010.4
20260504203021 7 226 0.0 11.3 0.00 0.03 0.03 92 1010.1
20260504201520 7 261 1.6 12.9 0.00 0.03 0.03 93 1009.8
20260504200013 8 225 0.0 0.0 0.00 0.03 0.03 93 1009.1
20260504194602 8 225 0.0 0.0 0.00 0.03 0.03 93 1008.7
20260504193031 8 225 0.0 0.0 0.00 0.03 0.03 93 1008.6
20260504191612 8 225 0.0 0.0 0.00 0.03 0.03 93 1008.7
20260504190023 8 225 0.0 0.0 0.00 0.03 0.03 93 1008.8
20260504184501 8 225 0.0 0.0 0.00 0.03 0.03 93 1008.6
20260504183058 8 225 0.0 0.0 0.00 0.03 0.03 93 1008.5
20260504181534 8 225 0.0 0.0 0.00 0.03 0.03 93 1008.5
20260504180026 8 225 0.0 0.0 0.03 0.03 0.03 93 1008.3
20260504174520 8 225 0.0 0.0 0.03 0.03 0.03 93 1008.6
20260504173012 8 225 0.0 0.0 0.03 0.03 0.03 93 1008.7
20260504171557 8 225 0.0 0.0 0.03 0.03 0.03 92 1008.7
20260504160121 9 321 0.0 0.0 0.00 0.00 0.00 91 1008.7
20260504090106 10 288 0.0 0.0 0.00 0.00 0.00 92 1010.7
20260504081551 8 256 0.0 0.0 0.00 0.00 0.00 95 1010.8
20260504050009 6 58 0.0 0.0 0.00 0.00 0.00 94 1010.4
20260504044553 6 58 0.0 0.0 0.00 0.00 0.00 94 1010.3
20260504043055 6 29 0.0 0.0 0.00 0.00 0.00 94 1010.5
20260504041521 6 29 0.0 0.0 0.00 0.00 0.00 93 1010.7
20260504040047 6 29 0.0 0.0 0.00 0.00 0.00 93 1010.6
20260504034519 6 29 0.0 0.0 0.00 0.00 0.00 92 1010.7
20260504033102 7 274 0.0 0.0 0.00 0.00 0.00 92 1010.3
20260504031602 7 274 0.0 0.0 0.00 0.00 0.00 92 1010.6
20260504030057 7 274 0.0 0.0 0.00 0.00 0.00 93 1010.7
20260504024604 7 274 0.0 0.0 0.00 0.00 0.00 93 1010.8
20260504023027 7 274 0.0 0.0 0.00 0.00 0.00 93 1010.6
20260504021515 7 276 0.0 0.0 0.00 0.00 0.00 93 1010.7
20260504020058 7 276 0.0 0.0 0.00 0.00 0.00 93 1010.8
20260504014537 7 276 0.0 0.0 0.00 0.00 0.00 93 1011.0
20260504013118 7 276 0.0 0.0 0.00 0.00 0.00 93 1011.1
20260504011537 8 276 0.0 0.0 0.00 0.00 0.00 93 1011.2
20260504010010 8 143 0.0 0.0 0.00 0.00 0.00 93 1011.2
20260504004606 8 143 0.0 0.0 0.00 0.00 0.00 92 1011.3